DateTimeUTC,F1_A11,F1_S11,BsB_S11,BsG_S11,BsR_S11,BbsB_S11,BbsG_S11,BbsR_S11,BaB_A11,BaG_A11,BaR_A11,Tu_S11,T_S11,Uu_S11,U_S11,P_S11,T1_A11
2021-01-05T13:00:00Z,00000200,21000000,,,,,,,-000.29,-000.36,0000.13,15.1,22.4,,00.0,0637.4,30.7
2021-01-05T13:01:00Z,00000200,21000000,,,,,,,0000.18,0000.28,0000.01,15.1,22.5,,00.0,0637.4,30.8
2021-01-05T13:02:00Z,00000200,21000000,,,,,,,0000.25,0000.32,0000.13,15.1,22.5,,00.0,0637.4,30.8
2021-01-05T13:03:00Z,00000200,61000000,,,,,,,-000.09,-000.21,-000.18,15.1,22.5,,00.0,0637.4,30.8
2021-01-05T13:04:00Z,00000200,41000000,0000.40,-000.18,-000.04,0000.26,-000.08,-000.04,0000.12,0000.39,0000.07,15.5,22.4,,00.0,0638.4,30.8
2021-01-05T13:05:00Z,00000200,01000000,0000.06,-000.14,-000.27,0000.10,-000.13,-000.06,0000.20,-000.11,0000.33,15.6,22.4,,00.0,0638.4,30.8
2021-01-05T13:06:00Z,00000200,01000000,0000.15,0000.02,0000.17,0000.14,-000.18,0000.06,-000.17,0000.31,-000.10,15.7,22.4,,00.0,0638.4,30.8
2021-01-05T13:07:00Z,00000200,01000000,0000.37,0000.34,0000.57,-000.18,0000.32,0000.21,0001.00,0000.87,0001.49,15.7,22.4,,00.0,0637.9,30.8
2021-01-05T13:08:00Z,00000200,01000000,-000.03,0000.16,-000.12,0000.26,0000.22,-000.17,-000.17,0000.01,-000.27,15.8,22.4,,00.0,0638.0,30.8
2021-01-05T13:09:00Z,00000200,01000000,0000.56,0000.10,0000.27,0000.65,0000.37,-000.01,-000.28,-000.56,-000.29,15.8,22.4,,00.0,0638.0,30.8
2021-01-05T13:10:00Z,00000200,01000000,0000.26,-000.01,0000.14,-000.01,0000.23,0000.04,0000.21,0000.20,-000.07,15.8,22.4,,00.0,0637.9,30.8
2021-01-05T13:11:00Z,00000200,01000000,0000.89,0000.32,0000.40,0000.52,0000.22,0000.13,0001.53,0001.78,0001.52,15.8,22.4,,00.0,0637.7,30.8
2021-01-05T13:12:00Z,00000200,01000000,0000.33,0000.47,0000.06,-000.61,0000.25,0000.06,-000.05,-000.36,0000.33,15.9,22.4,,00.0,0637.5,30.8
2021-01-05T13:13:00Z,00000200,01000000,-000.21,0000.10,0000.11,0000.24,0000.07,-000.02,0000.02,0000.22,-000.34,15.9,22.5,,00.0,0637.5,30.8
2021-01-05T13:14:00Z,00000200,01000000,-000.58,0000.13,-000.03,-000.20,0000.15,0000.10,0000.15,0000.12,0000.35,15.9,22.5,,00.0,0637.5,30.8
2021-01-05T13:15:00Z,00000200,01000000,-000.06,0000.32,-000.01,-000.43,0000.02,-000.03,-000.03,-000.05,-000.08,16.0,22.5,,00.0,0637.5,30.8
2021-01-05T13:16:00Z,00000200,01000000,-000.04,-000.11,-000.05,-000.42,0000.09,-000.12,-000.03,0000.30,-000.05,16.1,22.5,,00.0,0637.5,30.8
2021-01-05T13:17:00Z,00000200,01000000,0000.00,-000.05,0000.05,-000.06,0000.02,0000.01,0000.13,-000.15,-000.05,16.1,22.6,,00.0,0637.5,30.8
2021-01-05T13:18:00Z,00000200,01000000,0000.03,0000.06,-000.09,0000.02,0000.05,0000.37,-000.09,-000.11,0000.02,16.2,22.6,,00.0,0637.6,30.8
2021-01-05T13:19:00Z,00000200,01000000,-000.00,0000.20,0000.04,0000.30,0000.13,0000.03,-000.02,-000.23,-000.16,16.2,22.7,,00.0,0637.5,30.8
2021-01-05T13:20:00Z,00000200,01000000,-000.18,0000.00,0000.24,0000.33,0000.41,0000.09,-000.19,-000.08,0000.05,16.2,22.6,,00.0,0637.5,30.8
2021-01-05T13:21:00Z,00000200,01000000,-000.17,0000.07,0000.12,-000.48,0000.16,0000.08,0000.06,0000.33,-000.11,16.1,22.6,,00.0,0637.5,30.7
2021-01-05T13:22:00Z,00000200,01000000,0000.34,0000.09,0000.06,0000.04,0000.28,-000.10,0000.56,0000.08,0000.29,16.0,22.5,,00.0,0637.5,30.7
2021-01-05T13:23:00Z,00000200,01000000,0000.70,0000.13,0000.02,-000.17,0000.06,-000.09,-000.08,0000.23,0000.01,15.9,22.5,,00.0,0637.5,30.7
2021-01-05T13:24:00Z,00000200,01000000,0000.71,0000.26,0000.22,0000.00,0000.24,0000.07,0000.20,0000.00,0000.34,15.8,22.4,,00.0,0637.5,30.7
2021-01-05T13:25:00Z,00000200,01000000,0000.27,0000.45,0000.11,-000.12,0000.25,-000.02,0000.04,-000.20,-000.01,15.7,22.4,,00.0,0637.4,30.7
2021-01-05T13:26:00Z,00000200,01000000,0000.47,0000.09,0000.07,-000.20,0000.13,0000.09,-000.12,-000.11,0000.02,15.6,22.3,,00.0,0637.4,30.7
2021-01-05T13:27:00Z,00000200,01000000,0000.62,0000.19,0000.05,0000.14,0000.28,-000.09,0000.17,0000.16,-000.00,15.6,22.3,,00.0,0637.4,30.7
2021-01-05T13:28:00Z,00000200,01000000,0000.49,0000.16,-000.04,0000.08,0000.18,-000.05,-000.08,0000.10,-000.08,15.6,22.3,,00.0,0637.5,30.7
2021-01-05T13:29:00Z,00000200,01000000,0002.93,0003.12,0002.48,0000.85,0000.59,0000.51,0002.86,0002.94,0002.48,15.7,22.3,,00.0,0636.1,30.7
2021-01-05T13:30:00Z,00000200,01000000,0002.90,0001.78,0001.92,0000.42,0000.26,0000.13,0005.20,0004.89,0003.76,15.7,22.4,,00.0,0634.7,30.7
2021-01-05T13:31:00Z,00000200,01000000,0000.09,0000.02,-000.04,-000.17,0000.13,-000.05,-000.56,-000.94,-000.47,15.8,22.4,,00.0,0634.8,30.8
2021-01-05T13:32:00Z,00000200,01000000,0000.84,-000.04,0000.01,0000.37,-000.09,-000.06,-000.98,-000.65,-000.88,15.8,22.4,,00.0,0634.8,30.8
2021-01-05T13:33:00Z,00000200,01000000,0000.16,0000.20,0000.19,0000.29,0000.09,0000.15,-000.11,0000.10,0000.24,15.9,22.4,,00.0,0634.3,30.8
2021-01-05T13:34:00Z,00000200,01000000,-000.01,0000.27,-000.04,-000.14,-000.04,0000.06,-000.27,-000.14,-000.22,15.9,22.4,,00.0,0634.3,30.8
2021-01-05T13:35:00Z,00000200,01000000,-000.02,0000.20,0000.17,-000.22,-000.03,-000.01,0000.35,-000.30,-000.12,15.8,22.4,,00.0,0634.3,30.8
2021-01-05T13:36:00Z,00000200,01000000,-000.06,0000.27,0000.36,0000.34,0000.19,-000.18,-000.08,-000.01,-000.08,15.7,22.4,,00.0,0634.2,30.7
2021-01-05T13:37:00Z,00000200,01000000,0000.48,0000.34,0000.15,-000.21,0000.10,-000.21,-000.63,-000.52,-000.06,15.7,22.3,,00.0,0634.2,30.7
2021-01-05T13:38:00Z,00000200,01000000,0000.24,0000.17,0000.25,0000.37,0000.01,-000.16,0000.02,0000.31,0000.06,15.6,22.3,,00.0,0634.2,30.7
2021-01-05T13:39:00Z,00000200,01000000,0000.08,0000.26,-000.21,-000.37,0000.13,0000.09,0000.20,-000.50,-000.22,15.5,22.2,,00.0,0634.2,30.7
2021-01-05T13:40:00Z,00000200,01000000,0000.12,0000.12,0000.17,-000.10,-000.05,-000.33,-000.03,-000.09,-000.07,15.3,22.1,,00.0,0634.2,30.6
2021-01-05T13:41:00Z,00000200,01000000,-000.13,0000.22,0000.16,0000.50,0000.06,0000.14,0000.34,0000.97,0000.41,15.3,22.1,,00.0,0634.2,30.6
2021-01-05T13:42:00Z,00000200,01000000,-000.47,0000.43,0000.24,0000.77,-000.03,-000.12,0000.34,0000.24,0000.34,15.3,22.1,,00.0,0634.2,30.6
2021-01-05T13:43:00Z,00000200,01000000,0000.25,0000.08,0000.07,0000.06,-000.10,0000.20,0000.33,0000.44,0000.31,15.3,22.1,,00.0,0634.2,30.7
2021-01-05T13:44:00Z,00000200,01000000,-000.02,0000.15,0000.22,-000.40,-000.16,0000.08,0000.10,-000.60,0000.02,15.3,22.1,,00.0,0634.2,30.7
2021-01-05T13:45:00Z,00000200,01000000,-000.01,-000.06,-000.03,-000.35,-000.27,0000.00,0000.02,0000.57,0000.30,15.4,22.1,,00.0,0634.2,30.7
2021-01-05T13:46:00Z,00000200,01000000,0000.27,0000.19,-000.03,0000.33,0000.03,-000.15,0000.00,0000.23,-000.14,15.4,22.1,,00.0,0634.1,30.7
2021-01-05T13:47:00Z,00000200,01000000,0000.11,0000.03,0000.36,-000.06,0000.03,0000.05,0000.08,0000.17,0000.24,15.4,22.1,,00.0,0634.1,30.7
2021-01-05T13:48:00Z,00000200,01000000,0000.58,0000.47,0000.19,0000.34,0000.19,0000.07,0000.04,-000.05,-000.46,15.5,22.1,,00.0,0634.2,30.7
2021-01-05T13:49:00Z,00000200,01000000,0000.37,-000.10,0000.26,0000.46,-000.05,0000.35,-000.07,-000.14,0000.33,15.5,22.1,,00.0,0634.2,30.7
2021-01-05T13:50:00Z,00000200,01000000,0000.61,0000.04,-000.11,0000.34,-000.14,0000.12,0000.23,0000.14,-000.10,15.5,22.1,,00.0,0634.2,30.7
2021-01-05T13:51:00Z,00000200,01000000,0000.30,0000.15,0000.00,0000.16,0000.12,0000.13,-000.11,0000.25,0000.06,15.5,22.1,,00.0,0634.3,30.7
2021-01-05T13:52:00Z,00000200,01000000,0000.20,0000.29,0000.16,-000.27,-000.08,0000.20,-000.11,-000.35,-000.19,15.5,22.1,,00.0,0634.3,30.7
2021-01-05T13:53:00Z,00000200,01000000,0000.71,-000.04,0000.11,-000.86,0000.02,0000.33,-000.01,0000.01,0000.14,15.4,22.1,,00.0,0634.3,30.7
2021-01-05T13:54:00Z,00000200,01000000,-000.32,0000.27,-000.06,0000.13,0000.25,0000.00,0000.15,0000.07,-000.08,15.4,22.1,,00.0,0634.3,30.7
2021-01-05T13:55:00Z,00000200,01000000,0000.37,0000.31,-000.08,-000.13,-000.11,0000.08,0000.02,0000.08,0000.51,15.3,22.0,,00.0,0634.3,30.7
2021-01-05T13:56:00Z,00000200,01000000,-000.04,0000.07,0000.25,-000.39,0000.22,-000.24,0000.30,0000.17,-000.32,15.3,22.0,,00.0,0634.3,30.7
2021-01-05T13:57:00Z,00000200,41000000,,,,,,,0000.10,0000.16,0000.27,15.3,22.1,,00.0,0634.2,30.7
2021-01-05T13:58:00Z,00000200,61000000,,,,,,,-000.10,-000.19,0000.02,14.9,22.2,,00.0,0633.3,30.7
2021-01-05T13:59:00Z,00000200,21000000,,,,,,,-000.52,-000.13,-000.10,14.9,22.3,,00.0,0633.3,30.8
